Regional Weather Roundup
Issued by NWS Little Rock, AR

Home | Current Version | Previous Version | Text Only | Print | Product List | Glossary Off
Versions: 1 2 3 4 5 6 7 8 9 10 11 12 13 14 15 16 17 18 19 20 21 22 23 24 25 26 27 28 29 30 31 32 33 34 35 36 37 38 39 40 41 42 43 44 45 46 47 48 49 50

000
ASUS44 KLZK 261405
RWRLZK

WEATHER ROUNDUP FOR ARKANSAS
NATIONAL WEATHER SERVICE LITTLE ROCK AR
900 AM CDT THU MAR 26 2015

NOTE: "FAIR" INDICATES FEW OR NO CLOUDS BELOW 12,000 FEET WITH NO
SIGNIFICANT WEATHER AND/OR OBSTRUCTIONS TO VISIBILITY.

ARZ001-003-010-029-261500-
NORTHWEST ARKANSAS

CITY           SKY/WX    TMP DP  RH WIND       PRES   REMARKS
FAYETTEVILLE   LGT RAIN  41  41 100 N18G25    30.10R
FORT SMITH     LGT RAIN  49  43  80 N13       30.08R
HARRISON       LGT RAIN  42  42 100 N9        30.08R FOG
BENTONVILLE    CLOUDY    41  36  81 N15       30.12S
ROGERS         LGT RAIN  40  37  89 N10G18    30.13R
SILOAM SPGS    CLOUDY    41  34  75 N17       30.13S
HIGHFILL       CLOUDY    41  38  89 N17       30.12R
SPRINGDALE     DRIZZLE   41  39  93 NE14G25     N/A  FOG
$$

ARZ004-005-016-261500-
NORTH CENTRAL ARKANSAS

CITY           SKY/WX    TMP DP  RH WIND       PRES   REMARKS
BATESVILLE     CLOUDY    48  45  87 N8        29.99R
FLIPPIN        CLOUDY    45  39  81 N12G25    30.06R
MTN HOME       LGT RAIN  43  41  93 N8        30.05R FOG
$$

ARZ040-041-261500-
WEST CENTRAL ARKANSAS

CITY           SKY/WX    TMP DP  RH WIND       PRES   REMARKS
MENA           CLOUDY    50  46  87 NW10      30.03R
MOUNT IDA      LGT RAIN  53  52  96 NW8       29.96R FOG
$$

ARZ009-017-025-026-028-261500-
NORTHEAST ARKANSAS

CITY           SKY/WX    TMP DP  RH WIND       PRES   REMARKS
CORNING          N/A     46  45  93 N17G24    29.99S
JONESBORO      CLOUDY    49  47  93 N16G24    29.94S
NEWPORT        CLOUDY    51  47  86 N25       29.98R
BLYTHEVILLE    LGT RAIN  49  48  97 N25G31    29.93F
NW BLYTHEVILLE CLOUDY    48  46  93 N25G31    29.95
$$

ARZ022-023-033-042-044-261500-
CENTRAL ARKANSAS

CITY           SKY/WX    TMP DP  RH WIND       PRES   REMARKS
LITTLE ROCK    CLOUDY    59  55  87 NW7       29.93R
N LITTLE ROCK  CLOUDY    56  56 100 N14       29.93R
JACKSONVILLE   DRIZZLE   55  53  94 N12       29.94R
SEARCY         LGT RAIN  52  50  93 N16G23    29.97R FOG
HOT SPRINGS    CLOUDY    57  56  96 W5        29.94R
RUSSELLVILLE   CLOUDY    51  45  79 N10       30.01R
CLINTON        CLOUDY    50  45  81 N5        30.03R
$$

ARZ036-261500-
EAST ARKANSAS

CITY           SKY/WX    TMP DP  RH WIND       PRES   REMARKS
WEST MEMPHIS   LGT RAIN  59  59 100 CALM      29.86F
$$

ARZ050-053-066-070-073-261500-
SOUTHWEST ARKANSAS

CITY           SKY/WX    TMP DP  RH WIND       PRES   REMARKS
ARKADELPHIA    CLOUDY    59  59 100 N3        29.95R
CAMDEN         PTSUNNY   61  57  88 CALM      29.92R
TEXARKANA      CLOUDY    60  59  96 N8        29.92R
EL DORADO      CLOUDY    60  59  96 CALM      29.91S
$$

ARZ056-057-069-261500-
SOUTHEAST ARKANSAS

CITY           SKY/WX    TMP DP  RH WIND       PRES   REMARKS
PINE BLUFF     PTSUNNY   61  56  83 S7        29.91R
STUTTGART      MOSUNNY   63  55  77 NW6       29.92R
MONTICELLO     RAIN      62  57  83 E8        29.88F

$$




USA.gov is the U.S. government's official web portal to all federal, state and local government web resources and services.